When you browse on this site, cookies collect data to enhance your experience and personalize the content and advertising you see.
Visit our Privacy Policy to learn more. By continuing to use the site, you agree to this use of cookies and data.
  • In Deutschland
  • Länderverzeichnis
  • Für 7 Tage
  • Wassertemperatur
  • Satellitenkarten
  • Wetterkarte
  • Widgets
  • user-avatar
    Anmelden

    Stündliche Wetter Patmos

    Heute, 20 Januar, Sonntag

    Zeit Temperatur Niederschläge Wind Luftdruck Luftfeuchtigkeit
    00:00 +15°C° 0.1 mm 7 m/S 763 mmHg 66%
    01:00 +15°C° 0.1 mm 7 m/S 763 mmHg 67%
    02:00 +15°C° 0 mm 7 m/S 762 mmHg 67%
    03:00 +15°C° 0.1 mm 7 m/S 762 mmHg 67%
    04:00 +15°C° 0.1 mm 7 m/S 762 mmHg 67%
    05:00 +15°C° 0.1 mm 8 m/S 762 mmHg 68%
    06:00 +15°C° 0 mm 8 m/S 762 mmHg 67%
    07:00 +15°C° 0 mm 8 m/S 762 mmHg 67%
    08:00 +15°C° 0 mm 8 m/S 762 mmHg 67%
    09:00 +15°C° 0 mm 8 m/S 762 mmHg 67%
    10:00 +15°C° 0 mm 8 m/S 762 mmHg 68%
    11:00 +15°C° 0 mm 8 m/S 762 mmHg 68%
    12:00 +15°C° 0.1 mm 8 m/S 761 mmHg 69%
    13:00 +15°C° 0.1 mm 7 m/S 761 mmHg 70%
    14:00 +15°C° 0.1 mm 7 m/S 761 mmHg 71%
    15:00 +14°C° 0.7 mm 7 m/S 760 mmHg 73%
    16:00 +14°C° 0.7 mm 6 m/S 760 mmHg 75%
    17:00 +14°C° 0.7 mm 6 m/S 760 mmHg 78%
    18:00 +13°C° 2.2 mm 6 m/S 760 mmHg 80%
    19:00 +13°C° 2.2 mm 6 m/S 760 mmHg 83%
    20:00 +11°C° 2.2 mm 6 m/S 760 mmHg 86%
    21:00 +11°C° 4.2 mm 6 m/S 760 mmHg 87%
    22:00 +11°C° 4.2 mm 7 m/S 760 mmHg 87%
    23:00 +11°C° 4.2 mm 7 m/S 760 mmHg 87%

    Morgen, 21 Januar, Montag

    Zeit Temperatur Niederschläge Wind Luftdruck Luftfeuchtigkeit
    00:00 +11°C° 2.7 mm 6 m/S 759 mmHg 86%
    01:00 +11°C° 2.7 mm 6 m/S 759 mmHg 86%
    02:00 +12°C° 2.7 mm 5 m/S 759 mmHg 85%
    03:00 +12°C° 0.7 mm 5 m/S 759 mmHg 85%
    04:00 +12°C° 0.7 mm 4 m/S 759 mmHg 85%
    05:00 +12°C° 0.7 mm 4 m/S 758 mmHg 84%
    06:00 +12°C° 0.2 mm 4 m/S 759 mmHg 84%
    07:00 +12°C° 0.2 mm 4 m/S 759 mmHg 83%
    08:00 +13°C° 0.2 mm 4 m/S 759 mmHg 83%
    09:00 +13°C° 0.3 mm 4 m/S 759 mmHg 82%
    10:00 +13°C° 0.3 mm 3 m/S 760 mmHg 81%
    11:00 +13°C° 0.3 mm 3 m/S 760 mmHg 80%
    12:00 +12°C° 0 mm 3 m/S 760 mmHg 80%
    13:00 +12°C° 0 mm 3 m/S 759 mmHg 79%
    14:00 +12°C° 0 mm 3 m/S 759 mmHg 79%
    15:00 +13°C° 0 mm 3 m/S 759 mmHg 77%
    16:00 +13°C° 0 mm 3 m/S 760 mmHg 75%
    17:00 +13°C° 0 mm 3 m/S 760 mmHg 73%
    18:00 +13°C° 0 mm 3 m/S 760 mmHg 72%
    19:00 +13°C° 0 mm 3 m/S 760 mmHg 70%
    20:00 +13°C° 0 mm 3 m/S 761 mmHg 68%
    21:00 +13°C° 0 mm 3 m/S 761 mmHg 67%
    22:00 +13°C° 0 mm 3 m/S 761 mmHg 66%
    23:00 +14°C° 0 mm 2 m/S 761 mmHg 65%

    übermorgen, 22 Januar, Dienstag

    Zeit Temperatur Niederschläge Wind Luftdruck Luftfeuchtigkeit
    00:00 +14°C° 0 mm 2 m/S 761 mmHg 65%
    01:00 +14°C° 0 mm 2 m/S 761 mmHg 65%
    02:00 +14°C° 0 mm 2 m/S 761 mmHg 66%
    03:00 +14°C° 0 mm 1 m/S 761 mmHg 66%
    04:00 +14°C° 0 mm 1 m/S 760 mmHg 67%
    05:00 +14°C° 0 mm 1 m/S 760 mmHg 67%
    06:00 +14°C° 0 mm 1 m/S 760 mmHg 68%
    07:00 +14°C° 0 mm 2 m/S 761 mmHg 69%
    08:00 +14°C° 0 mm 2 m/S 761 mmHg 70%
    09:00 +14°C° 0 mm 2 m/S 761 mmHg 70%
    10:00 +13°C° 0 mm 3 m/S 761 mmHg 70%
    11:00 +13°C° 0 mm 3 m/S 761 mmHg 70%
    12:00 +13°C° 0 mm 3 m/S 760 mmHg 70%
    13:00 +14°C° 0 mm 4 m/S 760 mmHg 70%
    14:00 +14°C° 0 mm 4 m/S 760 mmHg 70%
    15:00 +14°C° 0 mm 4 m/S 759 mmHg 70%
    16:00 +14°C° 0 mm 5 m/S 759 mmHg 70%
    17:00 +14°C° 0 mm 5 m/S 759 mmHg 71%
    18:00 +14°C° 0 mm 6 m/S 759 mmHg 72%
    19:00 +14°C° 0 mm 7 m/S 759 mmHg 72%
    20:00 +15°C° 0 mm 7 m/S 759 mmHg 73%
    21:00 +15°C° 0 mm 8 m/S 759 mmHg 73%
    22:00 +15°C° 0 mm 9 m/S 759 mmHg 73%
    23:00 +14°C° 0 mm 10 m/S 758 mmHg 73%

    23 Januar, Mittwoch

    Zeit Temperatur Niederschläge Wind Luftdruck Luftfeuchtigkeit
    00:00 +14°C° 0.2 mm 10 m/S 758 mmHg 73%
    01:00 +14°C° 0.2 mm 10 m/S 758 mmHg 74%
    02:00 +14°C° 0.2 mm 11 m/S 758 mmHg 74%
    03:00 +14°C° 1.1 mm 10 m/S 757 mmHg 74%
    04:00 +14°C° 1.1 mm 10 m/S 757 mmHg 73%
    05:00 +15°C° 1.1 mm 9 m/S 757 mmHg 73%
    06:00 +16°C° 1 mm 9 m/S 757 mmHg 73%
    07:00 +16°C° 1 mm 9 m/S 757 mmHg 73%
    08:00 +16°C° 1 mm 9 m/S 757 mmHg 73%
    09:00 +16°C° 1.2 mm 9 m/S 757 mmHg 74%
    10:00 +16°C° 1.2 mm 10 m/S 757 mmHg 74%
    11:00 +16°C° 1.2 mm 10 m/S 757 mmHg 75%
    12:00 +16°C° 1.3 mm 10 m/S 757 mmHg 75%
    13:00 +16°C° 1.3 mm 11 m/S 756 mmHg 75%
    14:00 +15°C° 1.3 mm 12 m/S 756 mmHg 75%
    15:00 +14°C° 1 mm 12 m/S 755 mmHg 76%
    16:00 +14°C° 1 mm 12 m/S 755 mmHg 76%
    17:00 +14°C° 1 mm 12 m/S 755 mmHg 77%
    18:00 +14°C° 0.7 mm 13 m/S 755 mmHg 76%
    19:00 +14°C° 0.7 mm 13 m/S 754 mmHg 76%
    20:00 +14°C° 0.7 mm 14 m/S 754 mmHg 76%
    21:00 +14°C° 0.4 mm 15 m/S 754 mmHg 74%
    22:00 +15°C° 0.4 mm 15 m/S 754 mmHg 73%
    23:00 +15°C° 0.4 mm 16 m/S 754 mmHg 72%

    24 Januar, Donnerstag

    Zeit Temperatur Niederschläge Wind Luftdruck Luftfeuchtigkeit
    00:00 +15°C° 0.3 mm 16 m/S 753 mmHg 72%
    01:00 +15°C° 0.3 mm 17 m/S 752 mmHg 73%
    02:00 +15°C° 0.3 mm 17 m/S 752 mmHg 73%
    03:00 +14°C° 0.9 mm 17 m/S 751 mmHg 74%
    04:00 +14°C° 0.9 mm 17 m/S 750 mmHg 75%
    05:00 +14°C° 0.9 mm 18 m/S 750 mmHg 77%
    06:00 +14°C° 1.7 mm 19 m/S 749 mmHg 76%
    07:00 +14°C° 1.7 mm 19 m/S 749 mmHg 75%
    08:00 +14°C° 1.7 mm 20 m/S 748 mmHg 75%
    09:00 +15°C° 1.9 mm 21 m/S 748 mmHg 74%
    10:00 +15°C° 1.9 mm 21 m/S 747 mmHg 74%
    11:00 +15°C° 1.9 mm 22 m/S 747 mmHg 74%
    12:00 +14°C° 2.8 mm 18 m/S 747 mmHg 73%
    13:00 +14°C° 2.8 mm 15 m/S 746 mmHg 72%
    14:00 +14°C° 2.8 mm 11 m/S 746 mmHg 71%
    15:00 +14°C° 0.4 mm 12 m/S 746 mmHg 69%
    16:00 +14°C° 0.4 mm 12 m/S 747 mmHg 67%
    17:00 +14°C° 0.4 mm 13 m/S 748 mmHg 65%
    18:00 +14°C° 0 mm 12 m/S 748 mmHg 65%
    19:00 +14°C° 0 mm 11 m/S 749 mmHg 64%
    20:00 +14°C° 0 mm 10 m/S 749 mmHg 64%
    21:00 +14°C° 0.7 mm 13 m/S 749 mmHg 66%
    22:00 +14°C° 0.7 mm 15 m/S 749 mmHg 68%
    23:00 +12°C° 0.7 mm 18 m/S 750 mmHg 71%

    25 Januar, Freitag

    Zeit Temperatur Niederschläge Wind Luftdruck Luftfeuchtigkeit
    00:00 +13°C° 0.7 mm 17 m/S 750 mmHg 67%
    01:00 +14°C° 0.7 mm 17 m/S 749 mmHg 64%
    02:00 +14°C° 0.7 mm 16 m/S 749 mmHg 60%
    03:00 +14°C° 0.4 mm 16 m/S 749 mmHg 63%
    04:00 +13°C° 0.4 mm 15 m/S 749 mmHg 66%
    05:00 +13°C° 0.4 mm 14 m/S 749 mmHg 68%
    06:00 +13°C° 1.5 mm 14 m/S 750 mmHg 71%
    07:00 +13°C° 1.5 mm 13 m/S 750 mmHg 73%
    08:00 +12°C° 1.5 mm 13 m/S 750 mmHg 75%
    09:00 +13°C° 0.5 mm 13 m/S 750 mmHg 72%
    10:00 +13°C° 0.5 mm 12 m/S 751 mmHg 69%
    11:00 +13°C° 0.5 mm 12 m/S 751 mmHg 65%
    12:00 +13°C° 0.2 mm 11 m/S 751 mmHg 66%
    13:00 +13°C° 0.2 mm 11 m/S 750 mmHg 67%
    14:00 +13°C° 0.2 mm 10 m/S 750 mmHg 68%
    15:00 +13°C° 0.4 mm 9 m/S 750 mmHg 72%
    16:00 +12°C° 0.4 mm 9 m/S 750 mmHg 75%
    17:00 +12°C° 0.4 mm 8 m/S 750 mmHg 78%
    18:00 +12°C° 0.5 mm 7 m/S 750 mmHg 75%
    19:00 +13°C° 0.5 mm 6 m/S 750 mmHg 73%
    20:00 +14°C° 0.5 mm 6 m/S 750 mmHg 70%
    21:00 +14°C° 1 mm 6 m/S 750 mmHg 69%
    22:00 +14°C° 1 mm 6 m/S 750 mmHg 68%
    23:00 +14°C° 1 mm 6 m/S 750 mmHg 67%
    Mehr zeigen